www.pogodaiklimat.ru

Погода и климат >> Архив погоды >> Пакистан >> Джейкобабад


ПОГОДА в Джейкобабаде

  • Прогноз погоды в Джейкобабаде
  • Монитор погоды в Джейкобабаде

АРХИВ ПОГОДЫ в Джейкобабаде

Время (UTC), дата Ветер
(напр.,м/с)
 
Видим.   Явления Облачность Т
(С)
Тd
(С)
f
(%)
Тe
(С)
Тes
(С)
Комфортность P
(гПа)
Po
(гПа)
Тmin
(С)
Tmax
(С)
R
(мм)
R24
(мм)
S
(см)
03 20.05 СВ 1 4000 м мгла 3/0
[Ci fib]
+31.0 +15.9 40 +34 +40 душно 1008.2 1001.9 +26.5
06 20.05 СВ 2 4000 м мгла 3/0
[Ci fib]
+35.5 +15.2 30 +37 +55 опасность
солнечного
удара
1008.3 1002.2
09 20.05 СВ 1 4000 м мгла 3/0
[Ci fib]
+39.0 +17.9 29 +42 +65 опасность
перегрева
1006.1 1000.0
12 20.05 СВ 1 4000 м мгла 3/0
[Ci fib]
+41.0 +16.6 24 +43 +48 опасность
перегрева
1004.4 998.4 +42.5
15 20.05 штиль 0 4000 м мгла 3/0
[Ac trans]
+36.5 +18.4 35 +41 +41 опасность
перегрева
1004.9 1000.0
18 20.05 штиль 0 4000 м мгла 4/0
[Ac trans]
+33.5 +18.3 41 +38 +38 очень
душно
1006.2 1000.0
21 20.05 штиль 0 4000 м мгла 4/0
[Ac trans]
+31.5 +15.8 39 +34 +34 душно 1004.7 1000.0
00 21.05 штиль 0 4000 м мгла 4/0
[Ac trans]
+29.5 +18.8 53 +35 +35 очень
душно
1004.3 998.0
03 21.05 штиль 0 4000 м мгла 3/0
[Ci fib]
+33.0 +17.6 40 +37 +44 очень
душно
1008.0 1001.8 +28.1
06 21.05 СВ 1 4000 м мгла 3/0
[Ci fib]
+38.5 +17.1 29 +41 +63 опасность
перегрева
1007.5 1001.4
09 21.05 штиль 0 4000 м мгла 3/0
[Ci fib]
+41.0 +16.6 24 +43 +67 опасность
перегрева
1004.9 1000.0
12 21.05 штиль 0 4000 м мгла 3/0
[Ci fib]
+42.5 +15.6 21 +44 +50 опасность
перегрева
1003.0 997.1 +43.0
15 21.05 С 2 4000 м мгла 6/3 1050 м
[St Ac trans]
+35.0 +15.2 31 +37 +37 очень
душно
1004.1 1000.0
18 21.05 СВ 2 4000 м мгла 6/3 1050 м
[St Ac trans]
+32.0 +14.1 34 +34 +34 душно 1006.2 1000.0
21 21.05 СВ 1 4000 м мгла 8/3 1050 м
[St Ac trans]
+30.5 +15.2 40 +33 +33 душно 1005.5 1000.0
00 22.05 СВ 1 4000 м мгла 5/3 1050 м
[St Ac trans]
+29.0 +16.3 46 +32 +32 душно 1004.8 998.5
03 22.05 СВ 1 4000 м мгла 3/0
[Ci fib]
+30.0 +19.4 53 +36 +42 очень
душно
1005.6 999.3 +26.1
06 22.05 СВ 1 4000 м мгла 3/0
[Ci fib]
+37.0 +18.1 33 +41 +64 опасность
перегрева
1005.5 999.4
09 22.05 СВ 1 4000 м мгла 3/0
[Ac trans]
+40.5 +18.3 28 +44 +63 опасность
перегрева
1002.0 1000.0
12 22.05 СВ 1 4000 м мгла 4/0
[Ac trans]
+42.5 +17.9 24 +45 +50 опасность
перегрева
1000.2 994.3 +42.5
15 22.05 штиль 0 4000 м мгла 5/3 1050 м
[St Ac trans]
+36.0 +15.6 30 +38 +38 очень
душно
1001.8 1000.0
18 22.05 Ю 1 4000 м мгла 1/0
[]
+33.0 +15.5 35 +35 +35 душно 1003.4 997.2
21 22.05 СВ 3 4000 м слаб. морось 6/4 750 м
[Cb cap Ac trans]
+31.0 +15.9 40 +34 +34 душно 1003.9 1000.0 0.0
00 23.05 СВ 3 4000 м мгла 5/3 1050 м
[St Ac trans]
+29.0 +17.2 49 +33 +33 очень
душно
1003.6 997.3 0.0
03 23.05 штиль 0 4000 м мгла 6/3 1050 м
[Sc Ac trans]
+30.5 +20.9 57 +38 +42 очень
душно
1004.3 998.0 +27.1
06 23.05 штиль 0 4000 м мгла 3/3
[Sc Ac trans]
+37.0 +19.1 35 +42 +60 опасность
перегрева
1004.1 998.0
09 23.05 штиль 0 4000 м мгла 4/0
[Ac trans]
+40.0 +19.3 30 +44 +64 опасность
перегрева
1002.0 1000.0
12 23.05 штиль 0 4000 м мгла 4/0
[Ac trans]
+41.5 +18.5 27 +45 +50 опасность
перегрева
1000.2 994.2 +43.0
15 23.05 С 1 4000 м слаб. дождь 9/4 600 м
[Cb cap Ac lent]
+37.0 +35.8 94 +93 +93 опасность
перегрева
1002.6 1000.0 5
18 23.05 штиль 0 4000 м мгла 5/0 1050 м
[Ac trans]
+34.0 +31.4 86 +66 +66 опасность
перегрева
1003.6 997.5
21 23.05 штиль 0 4000 м мгла 6/3 1050 м
[St Ac trans]
+32.0 +28.6 82 +54 +54 опасность
перегрева
1003.1 996.8
00 24.05 штиль 0 4000 м мгла 3/3
[St Ac trans]
+28.0 +22.1 70 +36 +36 очень
душно
1004.1 997.8
03 24.05 штиль 0 4000 м мгла ясно +29.5 +18.8 53 +35 +42 очень
душно
1006.5 1000.2 +25.0
06 24.05 СВ 1 4000 м мгла ясно +34.5 +20.5 44 +41 +64 опасность
перегрева
1007.0 1000.9
09 24.05 СВ 1 4000 м мгла ясно +38.5 +20.2 35 +44 +67 опасность
перегрева
1005.0 998.8
12 24.05 СВ 1 4000 м мгла ясно +40.5 +19.0 29 +45 +51 опасность
перегрева
1003.0 997.0 +41.0
15 24.05 штиль 0 4000 м мгла ясно +35.0 +17.3 35 +38 +38 очень
душно
1003.8 1000.0
18 24.05 штиль 0 4000 м мгла ясно +32.0 +16.2 39 +35 +35 очень
душно
1004.7 998.5
21 24.05 штиль 0 4000 м мгла ясно +30.5 +17.2 45 +34 +34 очень
душно
1004.0 1000.0
00 25.05 штиль 0 4000 м мгла ясно +28.5 +17.5 51 +33 +33 очень
душно
1004.4 998.1
03 25.05 СВ 1 4000 м мгла ясно +33.0 +18.5 42 +38 +45 очень
душно
1005.6 999.4 +27.1
06 25.05 штиль 0 4000 м мгла ясно +38.0 +17.5 30 +41 +67 опасность
перегрева
1006.3 1000.2
09 25.05 штиль 0 4000 м мгла ясно +41.0 +14.3 21 +42 +67 опасность
перегрева
1003.7 1000.0
12 25.05 штиль 0 4000 м мгла ясно +43.0 +18.6 25 +47 +54 опасность
перегрева
1001.8 995.9 +44.0
15 25.05 штиль 0 4000 м мгла ясно +36.0 +15.6 30 +38 +38 очень
душно
1002.5 1000.0
18 25.05 штиль 0 4000 м мгла ясно +33.0 +16.6 38 +36 +36 очень
душно
1003.8 997.6
21 25.05 штиль 0 4000 м мгла ясно +31.5 +17.5 43 +35 +35 очень
душно
1003.2 1000.0
00 26.05 штиль 0 4000 м мгла ясно +29.5 +16.3 45 +33 +33 душно 1002.9 996.6
03 26.05 штиль 0 4000 м мгла ясно +32.5 +17.9 42 +37 +44 очень
душно
1003.3 997.1 +28.3
06 26.05 штиль 0 4000 м мгла ясно +40.5 +18.0 27 +44 +70 опасность
перегрева
1003.1 997.1
09 26.05 штиль 0 4000 м мгла ясно +45.5 +16.2 19 +47 +73 опасность
перегрева
1000.5 1000.0
12 26.05 штиль 0 4000 м мгла ясно +46.0 +16.7 19 +48 +55 опасность
перегрева
998.3 992.5 +47.5
15 26.05 штиль 0 4000 м мгла ясно +40.0 +15.0 23 +41 +41 опасность
перегрева
999.5 1000.0
18 26.05 штиль 0 4000 м мгла ясно +36.5 +16.3 30 +39 +39 очень
душно
1001.2 995.1
21 26.05 штиль 0 4000 м мгла ясно +33.0 +15.5 35 +35 +35 душно 1000.4 1000.0
00 27.05 штиль 0 4000 м мгла ясно +31.0 +15.9 40 +34 +34 душно 999.8 993.5

 

Местоположение метеостанции Джейкобабад (Пакистан): широта 28.30 долгота 68.47 высота над уровнем моря 56 м.

В архиве по умолчанию представлена погода в Джейкобабаде за последнюю неделю. Архивные данные за месяц целиком и за предыдущие месяцы, начиная с января 2011 года, Вы можете получить, выбрав интересующий диапазон дат из раскрывающегося списка и нажав кнопку "Ввод!".


*Определитесь, кто Вы:
робот инопланетянин человек

Внимание! Время в таблицах - всемирное. Для получения местного времени необходимо прибавить поправку, которая равна 5 ч.

Смотрите также архив погоды в соседних городах и на ближайших метеорологических станциях:

Погода в Суккуре (Пакистан) (72 км)
Погода в Рохри (Пакистан) (82 км)
Погода в Ларкане (Пакистан) (88 км)
Погода в Мохенджо-Даро (Пакистан) (114 км)
Погода в Сиби (Пакистан) (150 км)
Погода в Пад Идан (Пакистан) (165 км)
Погода в Рахим Яр Хан (Пакистан) (182 км)
Погода в Хуздаре (Пакистан) (188 км)
Погода в Калате (Пакистан) (202 км)
Погода в Бархане (Пакистан) (214 км)

Пояснения к столбцам:

Ветер - указаны скорость ветра в м/с - средняя за 10 мин, порывы в срок и между сроками (в фигурных скобках) и направление, откуда дует ветер: С - северный, СВ - северо-восточный, В - восточный, ЮВ - юго-восточный, Ю - южный, ЮЗ - юго-западный, З - западный, СЗ - северо-западный.
Видимость - горизонтальная дальность видимости в метрах или километрах. При видимости от 1 до 10 км при отсутствии осадков обычно наблюдается дымка, при ухудшении видимости до 1 км и менее - туман. В сухую погоду видимость может ухудшаться дымом, пылью или мглою.
Явления - указаны атмосферные явления, наблюдавшиеся в срок или в последний час перед сроком; фигурными скобками обозначены явления, наблюдавшиеся между сроками (за 1-3 часа до срока); квадратными скобками обозначены град или гололедные отложения с указанием их диаметра в мм.
Облачность - указаны через наклонную черту общая и нижняя облачность в баллах и высота нижней границы облаков в метрах; квадратными скобками обозначены формы облаков: Ci - перистые, Cs - перисто-слоистые, Cc - перисто-кучевые, Ac - высококучевые, As - высокослоистые, Sc - слоисто-кучевые, Ns - слоисто-дождевые, Cu - кучевые, Cb - кучево-дождевые. Подробнее классификацию облаков см. в Атласе облаков (PDF).
T - Температура воздуха - температура, измеренная на высоте 2 м над землей.
Td - Температура точки росы - температура, при понижении до которой содержащийся в воздухе водяной пар достигнет насыщения.
f - Относительная влажность воздуха - влажноcть воздуха, измеренная на высоте 2 м над землей.
Te - Эффективная температура - температура, которую ощущает одетый по сезону человек в тени. Характеристика душности погоды. При расчете учитывается влияние влажности воздуха и скорости ветра на теплоощущения человека.
Tes - Эффективная температура на солнце - температура, которую ощущает человек, с поправкой на солнечный нагрев. Характеристика знойности погоды. Зависит от высоты солнца над горизонтом, облачности и скорости ветра. Ночью, в пасмурную погоду, а также при ветре 12 м/с и более поправка равна нулю.
P - Атмосферное давление - приведенное к уровню моря атмосферное давление.
Po - Атмосферное давление - измеренное на уровне метеостанции атмосферное давление.
Tmin - Минимальная температура - минимум температуры воздуха на высоте 2 м над землей.
Tmax - Максимальная температура - максимум температуры воздуха на высоте 2 м над землей.
R - Количество осадков - Количество выпавших осадков за период времени, мм. При наведении курсора мыши на число - период времени, за который выпало указанное количество осадков.
R24 - Количество осадков - Количество выпавших осадков за 24 часа, мм.
S - Снежный покров - Высота снежного покрова, см. При наведении курсора мыши на число - состояние снежного покрова и степень покрытия местности в баллах.